When you browse on this site, cookies collect data to enhance your experience and personalize the content and advertising you see.
Visit our Privacy Policy to learn more. By continuing to use the site, you agree to this use of cookies and data.
  • En España
  • Lista de países
  • Para 7 días
  • Temperatura del agua
  • El tiempo en el mapa
  • Informadores
  • user-avatar
    Iniciar sesión

    Tiempo cada hora Inchhon

    Hoy, 3 Junio, Miércoles

    Tiempo Temperatura Precipitaciones Viento Presión Humedad
    00:00 +19°C° 0 mm 3 mps 752 mmHg 89%
    01:00 +19°C° 0 mm 3 mps 752 mmHg 90%
    02:00 +19°C° 0 mm 2 mps 752 mmHg 91%
    03:00 +20°C° 0 mm 1 mps 752 mmHg 91%
    04:00 +20°C° 0 mm 1 mps 752 mmHg 90%
    05:00 +18°C° 0 mm 0 mps 752 mmHg 90%
    06:00 +18°C° 0 mm 0 mps 752 mmHg 86%
    07:00 +21°C° 0 mm 1 mps 752 mmHg 82%
    08:00 +22°C° 0 mm 1 mps 752 mmHg 75%
    09:00 +23°C° 0 mm 1 mps 752 mmHg 69%
    10:00 +25°C° 0 mm 1 mps 751 mmHg 62%
    11:00 +26°C° 0 mm 2 mps 751 mmHg 55%
    12:00 +27°C° 0 mm 2 mps 750 mmHg 53%
    13:00 +28°C° 0 mm 3 mps 750 mmHg 50%
    14:00 +28°C° 0 mm 3 mps 750 mmHg 46%
    15:00 +27°C° 0 mm 3 mps 750 mmHg 54%
    16:00 +26°C° 0 mm 4 mps 749 mmHg 61%
    17:00 +25°C° 0 mm 5 mps 749 mmHg 69%
    18:00 +23°C° 0 mm 5 mps 750 mmHg 74%
    19:00 +22°C° 0 mm 4 mps 750 mmHg 79%
    20:00 +21°C° 0 mm 3 mps 750 mmHg 85%
    21:00 +21°C° 0 mm 3 mps 751 mmHg 86%
    22:00 +20°C° 0 mm 3 mps 751 mmHg 87%
    23:00 +20°C° 0 mm 3 mps 751 mmHg 88%

    Mañana, 4 Junio, Jueves

    Tiempo Temperatura Precipitaciones Viento Presión Humedad
    00:00 +20°C° 0 mm 3 mps 751 mmHg 88%
    01:00 +20°C° 0 mm 4 mps 751 mmHg 87%
    02:00 +20°C° 0 mm 4 mps 751 mmHg 86%
    03:00 +20°C° 0 mm 4 mps 751 mmHg 87%
    04:00 +20°C° 0 mm 5 mps 751 mmHg 87%
    05:00 +20°C° 0 mm 5 mps 751 mmHg 87%
    06:00 +20°C° 0 mm 5 mps 751 mmHg 86%
    07:00 +20°C° 0 mm 5 mps 751 mmHg 84%
    08:00 +21°C° 0 mm 5 mps 751 mmHg 83%
    09:00 +21°C° 0 mm 5 mps 751 mmHg 81%
    10:00 +22°C° 0 mm 5 mps 751 mmHg 78%
    11:00 +22°C° 0 mm 4 mps 751 mmHg 76%
    12:00 +23°C° 0 mm 4 mps 751 mmHg 74%
    13:00 +23°C° 0 mm 4 mps 751 mmHg 72%
    14:00 +25°C° 0 mm 4 mps 750 mmHg 70%
    15:00 +23°C° 0 mm 4 mps 751 mmHg 73%
    16:00 +23°C° 0 mm 4 mps 751 mmHg 75%
    17:00 +22°C° 0 mm 4 mps 751 mmHg 77%
    18:00 +22°C° 0 mm 3 mps 751 mmHg 80%
    19:00 +21°C° 0 mm 3 mps 751 mmHg 83%
    20:00 +20°C° 0 mm 2 mps 752 mmHg 86%
    21:00 +20°C° 0 mm 2 mps 752 mmHg 86%
    22:00 +20°C° 0 mm 2 mps 753 mmHg 86%
    23:00 +21°C° 0 mm 1 mps 753 mmHg 86%

    Pasado mañana, 5 Junio, Viernes

    Tiempo Temperatura Precipitaciones Viento Presión Humedad
    00:00 +21°C° 0 mm 1 mps 753 mmHg 86%
    01:00 +20°C° 0 mm 2 mps 753 mmHg 86%
    02:00 +20°C° 0 mm 2 mps 753 mmHg 86%
    03:00 +21°C° 0 mm 1 mps 753 mmHg 85%
    04:00 +18°C° 0 mm 0 mps 754 mmHg 84%
    05:00 +18°C° 0 mm 0 mps 754 mmHg 82%
    06:00 +19°C° 0 mm 0 mps 754 mmHg 76%
    07:00 +22°C° 0 mm 1 mps 754 mmHg 70%
    08:00 +23°C° 0 mm 1 mps 755 mmHg 64%
    09:00 +24°C° 0 mm 2 mps 754 mmHg 58%
    10:00 +26°C° 0 mm 2 mps 754 mmHg 52%
    11:00 +27°C° 0 mm 3 mps 754 mmHg 46%
    12:00 +27°C° 0 mm 3 mps 754 mmHg 45%
    13:00 +27°C° 0 mm 3 mps 754 mmHg 44%
    14:00 +28°C° 0 mm 4 mps 753 mmHg 42%
    15:00 +28°C° 0 mm 4 mps 753 mmHg 42%
    16:00 +27°C° 0 mm 4 mps 753 mmHg 42%
    17:00 +27°C° 0 mm 4 mps 753 mmHg 41%
    18:00 +26°C° 0 mm 3 mps 754 mmHg 44%
    19:00 +25°C° 0 mm 3 mps 754 mmHg 46%
    20:00 +24°C° 0 mm 2 mps 754 mmHg 49%
    21:00 +24°C° 0 mm 2 mps 755 mmHg 50%
    22:00 +24°C° 0 mm 2 mps 755 mmHg 51%
    23:00 +23°C° 0 mm 1 mps 755 mmHg 52%

    6 Junio, Sábado

    Tiempo Temperatura Precipitaciones Viento Presión Humedad
    00:00 +23°C° 0 mm 1 mps 755 mmHg 54%
    01:00 +23°C° 0 mm 1 mps 755 mmHg 56%
    02:00 +22°C° 0 mm 1 mps 755 mmHg 58%
    03:00 +22°C° 0 mm 1 mps 755 mmHg 59%
    04:00 +22°C° 0 mm 1 mps 755 mmHg 60%
    05:00 +22°C° 0 mm 1 mps 755 mmHg 61%
    06:00 +23°C° 0 mm 1 mps 756 mmHg 56%
    07:00 +25°C° 0 mm 1 mps 756 mmHg 52%
    08:00 +26°C° 0 mm 1 mps 756 mmHg 47%
    09:00 +28°C° 0 mm 1 mps 755 mmHg 42%
    10:00 +29°C° 0 mm 1 mps 755 mmHg 38%
    11:00 +31°C° 0 mm 1 mps 755 mmHg 33%
    12:00 +31°C° 0 mm 2 mps 755 mmHg 32%
    13:00 +31°C° 0 mm 2 mps 755 mmHg 31%
    14:00 +31°C° 0 mm 3 mps 754 mmHg 31%
    15:00 +30°C° 0 mm 4 mps 754 mmHg 34%
    16:00 +29°C° 0 mm 4 mps 754 mmHg 37%
    17:00 +28°C° 0 mm 4 mps 754 mmHg 40%
    18:00 +27°C° 0 mm 4 mps 755 mmHg 43%
    19:00 +26°C° 0 mm 3 mps 755 mmHg 47%
    20:00 +25°C° 0 mm 2 mps 756 mmHg 50%
    21:00 +25°C° 0 mm 2 mps 756 mmHg 51%
    22:00 +25°C° 0 mm 2 mps 756 mmHg 52%
    23:00 +24°C° 0 mm 2 mps 757 mmHg 53%

    7 Junio, Domingo

    Tiempo Temperatura Precipitaciones Viento Presión Humedad
    00:00 +23°C° 0 mm 2 mps 757 mmHg 55%
    01:00 +23°C° 0 mm 2 mps 757 mmHg 56%
    02:00 +21°C° 0 mm 2 mps 757 mmHg 58%
    03:00 +21°C° 0 mm 2 mps 757 mmHg 59%
    04:00 +21°C° 0 mm 2 mps 757 mmHg 60%
    05:00 +21°C° 0 mm 2 mps 758 mmHg 61%
    06:00 +23°C° 0 mm 2 mps 758 mmHg 56%
    07:00 +24°C° 0 mm 2 mps 758 mmHg 52%
    08:00 +25°C° 0 mm 2 mps 758 mmHg 48%
    09:00 +26°C° 0 mm 2 mps 758 mmHg 44%
    10:00 +28°C° 0 mm 2 mps 757 mmHg 39%
    11:00 +29°C° 0 mm 2 mps 757 mmHg 35%
    12:00 +29°C° 0 mm 3 mps 757 mmHg 36%
    13:00 +28°C° 0 mm 3 mps 756 mmHg 36%
    14:00 +28°C° 0 mm 4 mps 756 mmHg 37%
    15:00 +28°C° 0 mm 3 mps 756 mmHg 38%
    16:00 +27°C° 0 mm 3 mps 756 mmHg 38%
    17:00 +27°C° 0 mm 2 mps 756 mmHg 39%
    18:00 +26°C° 0 mm 2 mps 756 mmHg 43%
    19:00 +25°C° 0 mm 2 mps 757 mmHg 46%
    20:00 +24°C° 0 mm 2 mps 757 mmHg 49%
    21:00 +23°C° 0 mm 2 mps 757 mmHg 50%
    22:00 +23°C° 0 mm 2 mps 758 mmHg 51%
    23:00 +21°C° 0 mm 2 mps 758 mmHg 53%

    8 Junio, Lunes

    Tiempo Temperatura Precipitaciones Viento Presión Humedad
    00:00 +21°C° 0 mm 2 mps 758 mmHg 54%
    01:00 +22°C° 0 mm 1 mps 758 mmHg 56%
    02:00 +21°C° 0 mm 1 mps 758 mmHg 57%
    03:00 +21°C° 0 mm 1 mps 758 mmHg 57%
    04:00 +21°C° 0 mm 1 mps 759 mmHg 57%
    05:00 +21°C° 0 mm 1 mps 759 mmHg 58%
    06:00 +23°C° 0 mm 1 mps 759 mmHg 53%
    07:00 +24°C° 0 mm 1 mps 759 mmHg 48%
    08:00 +26°C° 0 mm 1 mps 759 mmHg 43%
    09:00 +27°C° 0 mm 1 mps 759 mmHg 41%
    10:00 +28°C° 0 mm 2 mps 759 mmHg 39%
    11:00 +29°C° 0 mm 3 mps 759 mmHg 36%
    12:00 +29°C° 0 mm 3 mps 758 mmHg 36%
    13:00 +29°C° 0 mm 3 mps 758 mmHg 35%
    14:00 +29°C° 0 mm 3 mps 758 mmHg 34%
    15:00 +28°C° 0 mm 3 mps 758 mmHg 38%
    16:00 +27°C° 0 mm 3 mps 758 mmHg 43%
    17:00 +26°C° 0 mm 4 mps 757 mmHg 48%
    18:00 +26°C° 0 mm 3 mps 758 mmHg 51%
    19:00 +25°C° 0 mm 2 mps 758 mmHg 53%
    20:00 +25°C° 0 mm 2 mps 759 mmHg 56%
    21:00 +24°C° 0 mm 2 mps 759 mmHg 58%
    22:00 +24°C° 0 mm 1 mps 759 mmHg 59%
    23:00 +24°C° 0 mm 1 mps 759 mmHg 60%
    Mostrar más